User: anonymous   Login
Location: Huntington Beach
(33.6600°N, 117.9980°W)
Time: 21:19:44
(UTC-08:00)
Language:

Hubble Space Telescope - Orbit

View from above orbital plane
View from above orbital plane
View from above satellite
View from above satellite

Ground track
Ground track

The orbit data is extracted from the following two-line orbital elements,

1 20580U 90037B   15057.66983247  .00002340  00000-0  14137-3 0  9995
2 20580 028.4699 162.6306 0003279 123.5719 018.4513 15.06888619163125
Epoch (UTC): 26 February 2015 16:04:33
Eccentricity: 0.0003279
inclination: 28.4699°
perigee height: 543 km
apogee height: 548 km
right ascension of ascending node: 162.6306°
argument of perigee: 123.5719°
revolutions per day: 15.06888619
mean anomaly at epoch: 18.4513°
orbit number at epoch: 16312

The dashed part of the orbit path shows where the satellite is in the earth's shadow,  

DLR